Regional Weather Roundup
Issued by NWS Sterling, VA

Home | Current Version | Previous Version | Graphics & Text | Print | Product List | Glossary On
Versions: 1 2 3 4 5 6 7 8 9 10 11 12 13 14 15 16 17 18 19 20 21 22 23 24 25 26 27 28 29 30 31 32 33 34 35 36 37 38 39 40 41 42 43 44 45 46 47 48 49 50
000
ASUS41 KLWX 311210
RWRLWX

REGIONAL WEATHER ROUNDUP
NATIONAL WEATHER SERVICE BALTIMORE MD/WASHINGTON DC
800 AM EDT MON AUG 31 2015

Note: "FAIR" indicates few or no clouds below 12,000 feet
with no significant weather and/or obstructions to visibility.
 TC=TEMPERATURE CELSIUS

 * =Non NWS site. Station does not report precipitation (e.g. rain,
    snow, etc.), thunder, or fog.

DCZ001-MDZ009-015-VAZ040>042-051-053>054-311300-
WASHINGTON METRO

CITY           SKY/WX    TMP DP  RH WIND       PRES   REMARKS
WASHINGTON NAT CLOUDY    76  68  76 S5        30.10R
DULLES         LGT RAIN  73  67  81 S6        30.10R
ANDREWS AFB    CLOUDY    74  66  75 W6        30.09R
FT BELVOIR     CLOUDY    71  69  93 SE2       30.09R
QUANTICO       CLOUDY    74  65  73 CALM      30.09S
COLLEGE PARK*  CLOUDY    77  68  73 CALM      30.09R
LEESBURG*      CLOUDY    73  72  94 S5        30.11R
MANASSAS*      PTSUNNY   72  70  94 CALM      30.10R
GAITHERSBURG*  CLOUDY    72  64  78 CALM      30.14R

$$

MDZ006>007-011-014-311300-
BALTIMORE METRO

CITY           SKY/WX    TMP DP  RH WIND       PRES   REMARKS
BWI AIRPORT    LGT RAIN  74  67  78 SW5       30.08R
MD SCIENCE CTR   N/A     77  66  68 MISG      30.08R
MARTIN STATE   CLOUDY    75  72  88 CALM      30.09R
ANNAPOLIS      CLOUDY    75  65  70 CALM      30.08R
FORT MEADE*    CLOUDY    70  66  88 CALM      30.11R

$$

MDZ012-015-019>023-311300-
MARYLAND EASTERN SHORE

CITY           SKY/WX    TMP DP  RH WIND       PRES   REMARKS
OCEAN CITY     CLOUDY    77  71  82 SW6       30.09S
SALISBURY      CLOUDY    73  71  93 S6        30.09S
BAY BRIDGE AP*   N/A     75  64  69 CALM      30.08S
CAMBRIDGE*     CLOUDY    77  70  78 CALM      30.08S
EASTON*        SUNNY     77  70  78 SW7       30.12R

$$

MDZ017>025-311300-
SOUTHERN MARYLAND

CITY           SKY/WX    TMP DP  RH WIND       PRES   REMARKS
PATUXENT RIVER CLOUDY    75  66  73 SW8       30.09S
ST INIGOES     CLOUDY    77  68  73 CALM      30.09R
LEONARDTOWN*   CLOUDY    73  64  73 CALM      30.11S

$$

MDZ003>005-311300-
NORTH CENTRAL MARYLAND

CITY           SKY/WX    TMP DP  RH WIND       PRES   REMARKS
FREDERICK*     SUNNY     73  70  88 S3        30.12R
HAGERSTOWN APT CLOUDY    73  66  78 E3        30.10R
WESTMINSTER*   CLOUDY    73  66  78 SW3       30.10R

$$

MDZ501>502-311300-
WESTERN MARYLAND

CITY           SKY/WX    TMP DP  RH WIND       PRES   REMARKS
OAKLAND*       CLOUDY    64  63  94 W5        30.21R
CUMBERLAND*    CLOUDY    70  68  94 CALM      30.15S

$$

VAZ025>031-311300-
SHENANDOAH VALLEY

CITY           SKY/WX    TMP DP  RH WIND       PRES   REMARKS
WINCHESTER*    CLOUDY    73  63  68 SW5       30.11R
FRONT ROYAL*   PTSUNNY   72  64  78 CALM      30.11R
LURAY*         FAIR      68  66  94 CALM      30.12S
NEW MARKET*    PTSUNNY   68  66  94 CALM      30.11S
STAUNTON*      CLOUDY    72  66  81 CALM      30.15R
WAYNESBORO*    FAIR      69  62  77 CALM      30.15R

$$

WVZ021-048>050-054>055-311300-
EASTERN WEST VIRGINIA PANHANDLE

CITY           SKY/WX    TMP DP  RH WIND       PRES   REMARKS
MARTINSBURG    CLOUDY    71  65  81 CALM      30.10R
PETERSBURG*    FOG       67  67 100 CALM      30.14R VSB 1/4

$$

VAZ036>039-050-311300-
CENTRAL FOOTHILLS

CITY           SKY/WX    TMP DP  RH WIND       PRES   REMARKS
CHARLOTTESVILL CLOUDY    71  67  87 S5        30.11R
CULPEPER*      CLOUDY    70  68  92 CALM      30.11S
ORANGE*        PTSUNNY   72  68  88 CALM      30.11S
GORDONSVILLE*  PTSUNNY   69  68  96 CALM      30.10R
WARRENTON*     FAIR      72  69  90 CALM      30.10S

$$

VAZ055>057-311300-
NORTH AND CENTRAL PIEDMONT

CITY           SKY/WX    TMP DP  RH WIND       PRES   REMARKS
FREDERICKSBRG* CLOUDY    76  67  75 CALM      30.09S
STAFFORD*      CLOUDY    71  66  83 CALM      30.13S

$$

NCZ024-NYZ072-PAZ021-071-VAZ022-071-311300-
OTHER REGIONAL OBSERVATIONS

CITY           SKY/WX    TMP DP  RH WIND       PRES   REMARKS
NEW YORK CITY  MOSUNNY   77  67  71 VRB3      30.06S
PHILADELPHIA   LGT RAIN  77  67  71 SW9       30.07R
PITTSBURGH     CLOUDY    68  65  90 CALM      30.11R
ROANOKE        CLOUDY    68  65  90 CALM      30.17R
RICHMOND       CLOUDY    76  65  68 SW7       30.11R
RALEIGH        RAIN      68  67  96 VRB3      30.13R FOG

$$

ANZ530>537-311300-
MARINE OBSERVATIONS

STATION/POSITION TIME  TEMP    WIND        PRES
                       AIR SEA DIR/SP/G
                 (UTC) (F)     (DEG/KT/KT) (MB)
THOMAS PT LIGHT  NOT AVBL

$$



USA.gov is the U.S. government's official web portal to all federal, state and local government web resources and services.